Location: Altoona
(40.5167°N, 78.4000°W)
Time: 00:47:07
(UTC-04:00)

ATLAS 2AS CENTAUR R/B - Pass Details

Date: 21 August 2017
Orbit: 906 x 1306 km, 63.7° (Epoch: 22 September)

Event Time Altitude Azimuth Distance (km) Brightness Sun altitude
Rises 20:28:37 0° 187° (S) 4,015 5.6 -5.6°
Reaches altitude 10° 20:31:24 10° 180° (S) 3,111 4.9 -6.1°
Maximum altitude 20:38:24 43° 113° (ESE) 1,708 3.3 -7.3°
Drops below altitude 10° 20:45:51 10° 46° (NE) 3,313 5.1 -8.6°
Sets 20:48:53 0° 40° (NE) 4,299 5.7 -9.2°
